Time,TemperatureF,DewpointF,PressureIn,WindDirection,WindDirectionDegrees,WindSpeedMPH,WindSpeedGustMPH,Humidity,HourlyPrecipIn,Conditions,Clouds,dailyrainin,SolarRadiationWatts/m^2,SoftwareType,DateUTC
2013-07-28 00:01:00,68.9,64.5,29.75,South,182,0.0,0.0,86,0.00,,,0.00,0,WeatherCatV1.20B785,2013-07-28 04:01:00,
2013-07-28 00:06:00,68.8,64.4,29.75,South,180,0.0,1.0,86,0.00,,,0.00,0,WeatherCatV1.20B785,2013-07-28 04:06:00,
2013-07-28 00:11:00,68.7,64.3,29.74,South,180,0.0,0.0,86,0.00,,,0.00,0,WeatherCatV1.20B785,2013-07-28 04:11:00,
2013-07-28 00:16:00,68.6,64.2,29.74,South,180,0.0,0.0,86,0.00,,,0.00,0,WeatherCatV1.20B785,2013-07-28 04:16:00,
2013-07-28 00:21:00,68.5,64.1,29.73,South,180,0.0,0.0,86,0.00,,,0.00,0,WeatherCatV1.20B785,2013-07-28 04:21:00,
2013-07-28 00:26:00,68.3,63.9,29.73,South,180,0.0,0.0,86,0.00,,,0.00,0,WeatherCatV1.20B785,2013-07-28 04:26:00,
2013-07-28 00:31:00,68.3,63.9,29.74,South,180,0.0,0.0,86,0.00,,,0.00,0,WeatherCatV1.20B785,2013-07-28 04:31:00,
2013-07-28 00:36:00,68.1,63.8,29.74,South,180,0.0,0.0,86,0.00,,,0.00,0,WeatherCatV1.20B785,2013-07-28 04:36:00,
2013-07-28 00:41:00,68.0,63.7,29.74,South,181,0.0,0.0,86,0.00,,,0.00,0,WeatherCatV1.20B785,2013-07-28 04:41:00,
2013-07-28 00:46:00,67.9,63.5,29.74,South,180,0.0,0.0,86,0.00,,,0.00,0,WeatherCatV1.20B785,2013-07-28 04:46:00,
2013-07-28 00:51:00,67.8,63.8,29.74,South,180,0.0,0.0,87,0.00,,,0.00,0,WeatherCatV1.20B785,2013-07-28 04:51:00,
2013-07-28 00:56:00,67.7,63.7,29.74,South,180,0.0,0.0,87,0.00,,,0.00,0,WeatherCatV1.20B785,2013-07-28 04:56:00,
2013-07-28 01:01:00,67.6,63.6,29.73,South,180,0.0,0.0,87,0.00,,,0.00,0,WeatherCatV1.20B785,2013-07-28 05:01:00,
2013-07-28 01:06:00,67.5,63.5,29.73,South,181,0.0,0.0,87,0.00,,,0.00,0,WeatherCatV1.20B785,2013-07-28 05:06:00,
2013-07-28 01:11:00,67.5,63.5,29.74,South,180,0.0,0.0,87,0.00,,,0.00,0,WeatherCatV1.20B785,2013-07-28 05:11:00,
2013-07-28 01:16:00,67.4,63.7,29.74,South,181,0.0,1.0,88,0.00,,,0.00,0,WeatherCatV1.20B785,2013-07-28 05:16:00,
2013-07-28 01:21:00,67.4,63.7,29.74,South,180,0.0,0.0,88,0.00,,,0.00,0,WeatherCatV1.20B785,2013-07-28 05:21:00,
2013-07-28 01:26:00,67.3,63.6,29.74,South,180,0.0,0.0,88,0.00,,,0.00,0,WeatherCatV1.20B785,2013-07-28 05:26:00,
2013-07-28 01:31:00,67.4,63.7,29.75,South,181,0.0,0.0,88,0.00,,,0.00,0,WeatherCatV1.20B785,2013-07-28 05:31:00,
2013-07-28 01:36:00,67.4,64.0,29.74,South,180,0.0,0.0,89,0.00,,,0.00,0,WeatherCatV1.20B785,2013-07-28 05:36:00,
2013-07-28 01:41:00,67.5,64.1,29.74,South,180,0.0,0.0,89,0.00,,,0.00,0,WeatherCatV1.20B785,2013-07-28 05:41:00,
2013-07-28 01:46:00,67.6,64.2,29.74,South,180,0.0,0.0,89,0.00,,,0.00,0,WeatherCatV1.20B785,2013-07-28 05:46:00,
2013-07-28 01:51:00,67.6,64.2,29.74,South,180,0.0,0.0,89,0.00,,,0.00,0,WeatherCatV1.20B785,2013-07-28 05:51:00,
2013-07-28 01:56:00,67.6,64.6,29.74,South,180,0.0,0.0,90,0.00,,,0.00,0,WeatherCatV1.20B785,2013-07-28 05:56:00,
2013-07-28 02:01:00,67.6,64.6,29.74,South,180,0.0,0.0,90,0.00,,,0.00,0,WeatherCatV1.20B785,2013-07-28 06:01:00,
2013-07-28 02:06:00,67.6,64.6,29.74,South,180,0.0,0.0,90,0.00,,,0.00,0,WeatherCatV1.20B785,2013-07-28 06:06:00,
2013-07-28 02:11:00,67.6,64.6,29.74,South,180,0.0,0.0,90,0.00,,,0.00,0,WeatherCatV1.20B785,2013-07-28 06:11:00,
2013-07-28 02:16:00,67.6,64.6,29.73,South,180,0.0,0.0,90,0.00,,,0.00,0,WeatherCatV1.20B785,2013-07-28 06:16:00,
2013-07-28 02:21:00,67.7,64.7,29.73,South,180,0.0,0.0,90,0.00,,,0.00,0,WeatherCatV1.20B785,2013-07-28 06:21:00,
2013-07-28 02:26:00,67.7,64.7,29.73,South,180,0.0,0.0,90,0.00,,,0.00,0,WeatherCatV1.20B785,2013-07-28 06:26:00,
2013-07-28 02:31:00,67.7,64.7,29.73,South,180,0.0,0.0,90,0.00,,,0.00,0,WeatherCatV1.20B785,2013-07-28 06:31:00,
2013-07-28 02:36:00,67.7,64.7,29.73,South,180,0.0,0.0,90,0.00,,,0.00,0,WeatherCatV1.20B785,2013-07-28 06:36:00,
2013-07-28 02:41:00,67.7,64.7,29.73,South,180,0.0,0.0,90,0.00,,,0.00,0,WeatherCatV1.20B785,2013-07-28 06:41:00,
2013-07-28 02:46:00,67.7,64.7,29.73,South,180,0.0,0.0,90,0.00,,,0.00,0,WeatherCatV1.20B785,2013-07-28 06:46:00,
2013-07-28 02:51:00,67.7,65.0,29.74,South,180,0.0,0.0,91,0.00,,,0.00,0,WeatherCatV1.20B785,2013-07-28 06:51:00,
2013-07-28 02:56:00,67.6,64.9,29.74,South,181,0.0,0.0,91,0.00,,,0.00,0,WeatherCatV1.20B785,2013-07-28 06:56:00,
2013-07-28 03:01:00,67.6,64.9,29.74,South,181,0.0,0.0,91,0.00,,,0.00,0,WeatherCatV1.20B785,2013-07-28 07:01:00,
2013-07-28 03:06:00,67.6,64.9,29.74,South,181,0.0,0.0,91,0.00,,,0.00,0,WeatherCatV1.20B785,2013-07-28 07:06:00,
2013-07-28 03:11:00,67.7,65.0,29.73,South,181,0.0,0.0,91,0.00,,,0.00,0,WeatherCatV1.20B785,2013-07-28 07:11:00,
2013-07-28 03:16:00,67.7,65.0,29.73,South,180,0.0,0.0,91,0.00,,,0.00,0,WeatherCatV1.20B785,2013-07-28 07:16:00,
2013-07-28 03:21:00,67.7,65.0,29.72,South,181,0.0,0.0,91,0.00,,,0.00,0,WeatherCatV1.20B785,2013-07-28 07:21:00,
2013-07-28 03:26:00,67.8,65.4,29.72,South,181,0.0,0.0,92,0.00,,,0.00,0,WeatherCatV1.20B785,2013-07-28 07:26:00,
2013-07-28 03:31:00,67.8,65.4,29.72,South,181,0.0,0.0,92,0.00,,,0.00,0,WeatherCatV1.20B785,2013-07-28 07:31:00,
2013-07-28 03:36:00,67.8,65.4,29.72,South,181,0.0,0.0,92,0.00,,,0.00,0,WeatherCatV1.20B785,2013-07-28 07:36:00,
2013-07-28 03:41:00,67.9,65.5,29.72,South,180,0.0,0.0,92,0.00,,,0.00,0,WeatherCatV1.20B785,2013-07-28 07:41:00,
2013-07-28 03:46:00,67.9,65.5,29.72,South,180,0.0,0.0,92,0.00,,,0.01,0,WeatherCatV1.20B785,2013-07-28 07:46:00,
2013-07-28 03:51:00,67.9,65.5,29.72,South,180,0.0,0.0,92,0.00,,,0.01,0,WeatherCatV1.20B785,2013-07-28 07:51:00,
2013-07-28 03:56:00,67.9,65.5,29.72,South,181,0.0,0.0,92,0.00,,,0.01,0,WeatherCatV1.20B785,2013-07-28 07:56:00,
2013-07-28 04:01:00,67.9,65.5,29.72,South,181,0.0,0.0,92,0.00,,,0.01,0,WeatherCatV1.20B785,2013-07-28 08:01:00,
2013-07-28 04:06:00,67.9,65.5,29.72,NW,304,0.0,0.0,92,0.00,,,0.01,0,WeatherCatV1.20B785,2013-07-28 08:06:00,
2013-07-28 04:11:00,67.9,65.5,29.72,NW,304,0.0,0.0,92,0.00,,,0.01,0,WeatherCatV1.20B785,2013-07-28 08:11:00,
2013-07-28 04:16:00,67.9,65.5,29.71,NW,304,0.0,0.0,92,0.00,,,0.01,0,WeatherCatV1.20B785,2013-07-28 08:16:00,
2013-07-28 04:21:00,67.9,65.5,29.71,WNW,303,0.0,0.0,92,0.00,,,0.01,0,WeatherCatV1.20B785,2013-07-28 08:21:00,
2013-07-28 04:26:00,67.9,65.5,29.71,NW,304,0.0,0.0,92,0.00,,,0.01,0,WeatherCatV1.20B785,2013-07-28 08:26:00,
2013-07-28 04:31:00,68.0,65.6,29.72,NW,304,0.0,0.0,92,0.00,,,0.01,0,WeatherCatV1.20B785,2013-07-28 08:31:00,
2013-07-28 04:36:00,68.0,65.6,29.72,NW,304,0.0,0.0,92,0.00,,,0.01,0,WeatherCatV1.20B785,2013-07-28 08:36:00,
2013-07-28 04:41:00,68.0,65.6,29.72,NW,304,0.0,0.0,92,0.00,,,0.01,0,WeatherCatV1.20B785,2013-07-28 08:41:00,
2013-07-28 04:46:00,68.0,65.6,29.72,WNW,303,0.0,0.0,92,0.00,,,0.01,0,WeatherCatV1.20B785,2013-07-28 08:46:00,
2013-07-28 04:51:00,68.0,65.6,29.72,WNW,303,0.0,1.0,92,0.00,,,0.01,0,WeatherCatV1.20B785,2013-07-28 08:51:00,
2013-07-28 04:56:00,68.0,65.9,29.72,NW,304,0.0,0.0,93,0.00,,,0.01,0,WeatherCatV1.20B785,2013-07-28 08:56:00,
2013-07-28 05:01:00,68.0,65.9,29.72,NW,304,0.0,0.0,93,0.00,,,0.01,0,WeatherCatV1.20B785,2013-07-28 09:01:00,
2013-07-28 05:06:00,68.0,65.9,29.72,NW,304,0.0,0.0,93,0.00,,,0.01,0,WeatherCatV1.20B785,2013-07-28 09:06:00,
2013-07-28 05:11:00,68.0,65.9,29.72,NW,304,0.0,0.0,93,0.00,,,0.01,0,WeatherCatV1.20B785,2013-07-28 09:11:00,
2013-07-28 05:16:00,68.0,65.9,29.72,NW,304,0.0,0.0,93,0.00,,,0.01,0,WeatherCatV1.20B785,2013-07-28 09:16:00,
2013-07-28 05:21:00,68.1,66.0,29.72,NW,304,0.0,1.0,93,0.00,,,0.01,0,WeatherCatV1.20B785,2013-07-28 09:21:00,
2013-07-28 05:26:00,68.1,66.0,29.72,WNW,303,0.0,0.0,93,0.00,,,0.01,0,WeatherCatV1.20B785,2013-07-28 09:26:00,
2013-07-28 05:31:00,68.1,66.0,29.72,NW,304,0.0,0.0,93,0.00,,,0.01,0,WeatherCatV1.20B785,2013-07-28 09:31:00,
2013-07-28 05:36:00,68.1,66.0,29.72,NW,304,1.0,1.0,93,0.00,,,0.01,0,WeatherCatV1.20B785,2013-07-28 09:36:00,
2013-07-28 05:41:00,68.0,65.9,29.72,NW,304,0.0,0.0,93,0.00,,,0.01,0,WeatherCatV1.20B785,2013-07-28 09:41:00,
2013-07-28 05:46:00,68.0,65.9,29.72,NW,304,0.0,0.0,93,0.00,,,0.01,0,WeatherCatV1.20B785,2013-07-28 09:46:00,
2013-07-28 05:51:00,68.0,65.9,29.73,NW,304,0.0,0.0,93,0.00,,,0.01,0,WeatherCatV1.20B785,2013-07-28 09:51:00,
2013-07-28 05:56:00,68.0,65.9,29.72,WNW,303,0.0,0.0,93,0.00,,,0.01,0,WeatherCatV1.20B785,2013-07-28 09:56:00,
2013-07-28 06:01:00,68.0,65.9,29.72,WNW,303,0.0,0.0,93,0.00,,,0.01,0,WeatherCatV1.20B785,2013-07-28 10:01:00,
2013-07-28 06:06:00,67.9,65.8,29.72,NW,304,0.0,0.0,93,0.00,,,0.01,0,WeatherCatV1.20B785,2013-07-28 10:06:00,
2013-07-28 06:11:00,67.9,65.8,29.72,NW,304,0.0,0.0,93,0.00,,,0.01,0,WeatherCatV1.20B785,2013-07-28 10:11:00,
2013-07-28 06:16:00,67.9,65.8,29.72,NW,304,0.0,0.0,93,0.00,,,0.01,5,WeatherCatV1.20B785,2013-07-28 10:16:00,
2013-07-28 06:21:00,67.9,65.8,29.72,NW,304,0.0,0.0,93,0.00,,,0.01,7,WeatherCatV1.20B785,2013-07-28 10:21:00,
2013-07-28 06:26:00,67.9,65.8,29.72,NW,304,1.0,3.0,93,0.00,,,0.01,11,WeatherCatV1.20B785,2013-07-28 10:26:00,
2013-07-28 06:31:00,67.8,65.7,29.72,WNW,303,0.0,1.0,93,0.00,,,0.01,12,WeatherCatV1.20B785,2013-07-28 10:31:00,
2013-07-28 06:36:00,67.8,65.7,29.72,NW,304,0.0,0.0,93,0.00,,,0.01,12,WeatherCatV1.20B785,2013-07-28 10:36:00,
2013-07-28 06:41:00,67.8,65.7,29.72,WNW,303,0.0,0.0,93,0.00,,,0.01,14,WeatherCatV1.20B785,2013-07-28 10:41:00,
2013-07-28 06:46:00,67.8,65.7,29.72,NW,304,0.0,0.0,93,0.00,,,0.01,11,WeatherCatV1.20B785,2013-07-28 10:46:00,
2013-07-28 06:51:00,67.9,65.8,29.72,NW,304,0.0,1.0,93,0.00,,,0.01,14,WeatherCatV1.20B785,2013-07-28 10:51:00,
2013-07-28 06:56:00,67.9,65.8,29.73,NW,304,0.0,0.0,93,0.00,,,0.01,12,WeatherCatV1.20B785,2013-07-28 10:56:00,
2013-07-28 07:01:00,67.8,65.7,29.73,WNW,303,0.0,0.0,93,0.00,,,0.01,14,WeatherCatV1.20B785,2013-07-28 11:01:00,
2013-07-28 07:06:00,67.9,65.8,29.73,NW,304,0.0,0.0,93,0.00,,,0.01,16,WeatherCatV1.20B785,2013-07-28 11:06:00,
2013-07-28 07:11:00,67.9,65.8,29.73,WNW,303,0.0,0.0,93,0.00,,,0.01,21,WeatherCatV1.20B785,2013-07-28 11:11:00,
2013-07-28 07:16:00,67.8,65.7,29.73,WNW,303,0.0,1.0,93,0.00,,,0.01,25,WeatherCatV1.20B785,2013-07-28 11:16:00,
2013-07-28 07:21:00,67.8,65.7,29.73,WNW,303,0.0,0.0,93,0.00,,,0.01,33,WeatherCatV1.20B785,2013-07-28 11:21:00,
2013-07-28 07:26:00,67.9,65.8,29.73,NW,304,0.0,0.0,93,0.00,,,0.01,39,WeatherCatV1.20B785,2013-07-28 11:26:00,
2013-07-28 07:31:00,67.9,66.1,29.73,NW,304,0.0,1.0,94,0.00,,,0.01,40,WeatherCatV1.20B785,2013-07-28 11:31:00,
2013-07-28 07:36:00,68.0,65.9,29.73,NW,304,0.0,1.0,93,0.00,,,0.01,47,WeatherCatV1.20B785,2013-07-28 11:36:00,
2013-07-28 07:41:00,68.0,66.2,29.73,NW,304,0.0,1.0,94,0.00,,,0.01,56,WeatherCatV1.20B785,2013-07-28 11:41:00,
2013-07-28 07:46:00,68.1,66.3,29.73,NW,304,0.0,1.0,94,0.00,,,0.01,53,WeatherCatV1.20B785,2013-07-28 11:46:00,
2013-07-28 07:51:00,68.1,66.3,29.73,NW,313,0.0,0.0,94,0.00,,,0.01,46,WeatherCatV1.20B785,2013-07-28 11:51:00,
2013-07-28 07:56:00,68.2,66.4,29.73,NW,322,3.0,3.0,94,0.00,,,0.01,58,WeatherCatV1.20B785,2013-07-28 11:56:00,
2013-07-28 08:01:00,68.2,66.4,29.73,NNW,327,0.0,3.0,94,0.00,,,0.01,56,WeatherCatV1.20B785,2013-07-28 12:01:00,
2013-07-28 08:06:00,68.2,66.4,29.73,NNW,327,2.0,2.0,94,0.00,,,0.01,62,WeatherCatV1.20B785,2013-07-28 12:06:00,
2013-07-28 08:11:00,68.3,66.5,29.73,NNW,327,0.0,0.0,94,0.00,,,0.01,70,WeatherCatV1.20B785,2013-07-28 12:11:00,
2013-07-28 08:16:00,68.4,66.6,29.73,NNW,327,0.0,1.0,94,0.00,,,0.01,84,WeatherCatV1.20B785,2013-07-28 12:16:00,
2013-07-28 08:21:00,68.5,66.7,29.73,NNW,327,0.0,2.0,94,0.00,,,0.01,118,WeatherCatV1.20B785,2013-07-28 12:21:00,
2013-07-28 08:26:00,68.6,66.8,29.72,NNE,25,0.0,1.0,94,0.00,,,0.01,93,WeatherCatV1.20B785,2013-07-28 12:26:00,
2013-07-28 08:31:00,68.8,67.0,29.72,NNW,346,1.0,2.0,94,0.00,,,0.01,72,WeatherCatV1.20B785,2013-07-28 12:31:00,
2013-07-28 08:36:00,68.8,67.0,29.72,NNW,344,1.0,1.0,94,0.00,,,0.01,56,WeatherCatV1.20B785,2013-07-28 12:36:00,
2013-07-28 08:41:00,68.9,66.8,29.72,North,355,1.0,2.0,93,0.00,,,0.01,105,WeatherCatV1.20B785,2013-07-28 12:41:00,
2013-07-28 08:46:00,68.9,66.8,29.72,North,349,0.0,2.0,93,0.00,,,0.01,146,WeatherCatV1.20B785,2013-07-28 12:46:00,
2013-07-28 08:51:00,69.0,66.9,29.72,NNW,342,2.0,2.0,93,0.00,,,0.01,171,WeatherCatV1.20B785,2013-07-28 12:51:00,
2013-07-28 08:56:00,69.1,67.0,29.72,NNW,336,0.0,1.0,93,0.00,,,0.01,169,WeatherCatV1.20B785,2013-07-28 12:56:00,
2013-07-28 09:01:00,69.2,67.1,29.73,NNW,336,1.0,3.0,93,0.00,,,0.01,167,WeatherCatV1.20B785,2013-07-28 13:01:00,
2013-07-28 09:06:00,69.5,67.4,29.73,NNW,336,0.0,1.0,93,0.00,,,0.01,179,WeatherCatV1.20B785,2013-07-28 13:06:00,
2013-07-28 09:11:00,69.8,67.7,29.73,NNW,336,0.0,1.0,93,0.00,,,0.01,183,WeatherCatV1.20B785,2013-07-28 13:11:00,
2013-07-28 09:16:00,70.0,67.9,29.73,NNW,336,1.0,2.0,93,0.00,,,0.01,171,WeatherCatV1.20B785,2013-07-28 13:16:00,
2013-07-28 09:21:00,70.3,68.2,29.73,NNW,336,0.0,1.0,93,0.00,,,0.01,185,WeatherCatV1.20B785,2013-07-28 13:21:00,
2013-07-28 09:26:00,70.5,68.1,29.73,NNW,336,0.0,1.0,92,0.00,,,0.01,186,WeatherCatV1.20B785,2013-07-28 13:26:00,
2013-07-28 09:31:00,70.8,68.3,29.73,NNW,336,1.0,1.0,92,0.00,,,0.01,230,WeatherCatV1.20B785,2013-07-28 13:31:00,
2013-07-28 09:36:00,71.0,68.6,29.73,NNW,337,2.0,2.0,92,0.00,,,0.01,248,WeatherCatV1.20B785,2013-07-28 13:36:00,
2013-07-28 09:41:00,71.2,68.4,29.73,NNW,337,0.0,2.0,91,0.00,,,0.01,251,WeatherCatV1.20B785,2013-07-28 13:41:00,
2013-07-28 09:46:00,71.4,68.6,29.73,NNW,337,1.0,1.0,91,0.00,,,0.01,179,WeatherCatV1.20B785,2013-07-28 13:46:00,
2013-07-28 09:51:00,71.6,68.5,29.73,NNW,337,0.0,3.0,90,0.00,,,0.01,179,WeatherCatV1.20B785,2013-07-28 13:51:00,
2013-07-28 09:56:00,71.8,68.4,29.73,NNW,338,2.0,2.0,89,0.00,,,0.01,216,WeatherCatV1.20B785,2013-07-28 13:56:00,
2013-07-28 10:01:00,72.1,68.7,29.74,NNW,338,0.0,2.0,89,0.00,,,0.01,262,WeatherCatV1.20B785,2013-07-28 14:01:00,
2013-07-28 10:06:00,72.4,68.6,29.73,NNW,338,0.0,1.0,88,0.00,,,0.01,220,WeatherCatV1.20B785,2013-07-28 14:06:00,
2013-07-28 10:11:00,72.7,68.9,29.73,NNW,338,0.0,3.0,88,0.00,,,0.01,251,WeatherCatV1.20B785,2013-07-28 14:11:00,
2013-07-28 10:16:00,73.0,68.9,29.73,NNW,338,2.0,3.0,87,0.00,,,0.01,323,WeatherCatV1.20B785,2013-07-28 14:16:00,
2013-07-28 10:21:00,73.7,68.6,29.73,NW,321,2.0,5.0,84,0.00,,,0.01,552,WeatherCatV1.20B785,2013-07-28 14:21:00,
2013-07-28 10:26:00,74.1,68.9,29.73,NNE,13,1.0,2.0,84,0.00,,,0.01,248,WeatherCatV1.20B785,2013-07-28 14:26:00,
2013-07-28 10:31:00,74.3,68.8,29.73,North,9,1.0,4.0,83,0.00,,,0.01,213,WeatherCatV1.20B785,2013-07-28 14:31:00,
2013-07-28 10:36:00,74.1,68.2,29.73,NW,323,1.0,5.0,82,0.00,,,0.01,195,WeatherCatV1.20B785,2013-07-28 14:36:00,
2013-07-28 10:41:00,74.3,68.8,29.73,NW,322,2.0,2.0,83,0.00,,,0.01,158,WeatherCatV1.20B785,2013-07-28 14:41:00,
2013-07-28 10:46:00,74.3,68.8,29.73,NW,322,3.0,3.0,83,0.00,,,0.01,207,WeatherCatV1.20B785,2013-07-28 14:46:00,
2013-07-28 10:51:00,74.2,68.7,29.73,NNE,23,1.0,3.0,83,0.00,,,0.01,206,WeatherCatV1.20B785,2013-07-28 14:51:00,
2013-07-28 10:56:00,74.6,69.1,29.73,NNW,340,1.0,3.0,83,0.00,,,0.01,257,WeatherCatV1.20B785,2013-07-28 14:56:00,
2013-07-28 11:01:00,74.2,68.7,29.73,NNE,14,3.0,3.0,83,0.00,,,0.01,316,WeatherCatV1.20B785,2013-07-28 15:01:00,
2013-07-28 11:06:00,74.5,69.3,29.73,NNW,337,2.0,2.0,84,0.00,,,0.01,269,WeatherCatV1.20B785,2013-07-28 15:06:00,
2013-07-28 11:11:00,74.7,69.5,29.72,NNE,28,2.0,5.0,84,0.00,,,0.01,448,WeatherCatV1.20B785,2013-07-28 15:11:00,
2013-07-28 11:16:00,75.0,69.1,29.72,NNW,336,3.0,3.0,82,0.00,,,0.01,387,WeatherCatV1.20B785,2013-07-28 15:16:00,
2013-07-28 11:21:00,75.8,70.2,29.72,NNW,340,1.0,2.0,83,0.00,,,0.01,376,WeatherCatV1.20B785,2013-07-28 15:21:00,
2013-07-28 11:26:00,75.8,69.9,29.72,NW,323,4.0,5.0,82,0.00,,,0.01,309,WeatherCatV1.20B785,2013-07-28 15:26:00,
2013-07-28 11:31:00,75.8,69.5,29.72,North,5,2.0,4.0,81,0.00,,,0.01,267,WeatherCatV1.20B785,2013-07-28 15:31:00,
2013-07-28 11:36:00,75.2,69.3,29.72,NNW,339,2.0,6.0,82,0.00,,,0.01,315,WeatherCatV1.20B785,2013-07-28 15:36:00,
2013-07-28 11:41:00,75.4,69.5,29.71,North,355,3.0,5.0,82,0.00,,,0.01,162,WeatherCatV1.20B785,2013-07-28 15:41:00,
2013-07-28 11:46:00,75.3,69.4,29.72,NNW,344,3.0,4.0,82,0.00,,,0.01,302,WeatherCatV1.20B785,2013-07-28 15:46:00,
2013-07-28 11:51:00,75.9,69.6,29.72,North,355,4.0,5.0,81,0.00,,,0.01,501,WeatherCatV1.20B785,2013-07-28 15:51:00,
2013-07-28 11:56:00,75.8,70.2,29.72,NNE,22,0.0,1.0,83,0.00,,,0.01,343,WeatherCatV1.20B785,2013-07-28 15:56:00,
2013-07-28 12:01:00,77.2,70.9,29.72,North,9,0.0,4.0,81,0.00,,,0.01,995,WeatherCatV1.20B785,2013-07-28 16:01:00,
2013-07-28 12:06:00,77.7,71.0,29.72,NW,324,0.0,0.0,80,0.00,,,0.01,1172,WeatherCatV1.20B785,2013-07-28 16:06:00,
2013-07-28 12:11:00,77.5,70.1,29.72,NNW,329,0.0,6.0,78,0.00,,,0.01,367,WeatherCatV1.20B785,2013-07-28 16:11:00,
2013-07-28 12:16:00,77.7,70.3,29.72,SSE,157,1.0,3.0,78,0.00,,,0.01,367,WeatherCatV1.20B785,2013-07-28 16:16:00,
2013-07-28 12:21:00,78.2,71.9,29.72,NNW,336,3.0,4.0,81,0.00,,,0.01,367,WeatherCatV1.20B785,2013-07-28 16:21:00,
2013-07-28 12:26:00,77.3,70.6,29.72,North,0,4.0,4.0,80,0.00,,,0.01,367,WeatherCatV1.20B785,2013-07-28 16:26:00,
2013-07-28 12:31:00,78.8,71.3,29.72,NW,326,0.0,0.0,78,0.00,,,0.01,928,WeatherCatV1.20B785,2013-07-28 16:31:00,
2013-07-28 12:36:00,78.7,70.5,29.71,North,5,2.0,2.0,76,0.00,,,0.01,686,WeatherCatV1.20B785,2013-07-28 16:36:00,
2013-07-28 12:41:00,77.9,70.5,29.71,North,355,3.0,6.0,78,0.00,,,0.01,394,WeatherCatV1.20B785,2013-07-28 16:41:00,
2013-07-28 12:46:00,78.1,70.7,29.71,NW,326,2.0,5.0,78,0.00,,,0.01,568,WeatherCatV1.20B785,2013-07-28 16:46:00,
2013-07-28 12:51:00,79.2,71.3,29.71,NNW,327,2.0,4.0,77,0.00,,,0.01,564,WeatherCatV1.20B785,2013-07-28 16:51:00,
2013-07-28 12:56:00,78.9,70.3,29.71,NNE,14,2.0,4.0,75,0.00,,,0.01,362,WeatherCatV1.20B785,2013-07-28 16:56:00,
2013-07-28 13:01:00,78.4,70.2,29.71,North,355,0.0,3.0,76,0.00,,,0.01,323,WeatherCatV1.20B785,2013-07-28 17:01:00,
2013-07-28 13:06:00,78.6,71.2,29.71,North,355,0.0,2.0,78,0.00,,,0.01,362,WeatherCatV1.20B785,2013-07-28 17:06:00,
2013-07-28 13:11:00,79.2,71.3,29.71,NNW,331,2.0,4.0,77,0.00,,,0.01,1136,WeatherCatV1.20B785,2013-07-28 17:11:00,
2013-07-28 13:16:00,79.9,71.2,29.71,WNW,285,1.0,2.0,75,0.00,,,0.01,1097,WeatherCatV1.20B785,2013-07-28 17:16:00,
2013-07-28 13:21:00,81.7,72.2,29.71,North,350,1.0,3.0,73,0.00,,,0.01,1092,WeatherCatV1.20B785,2013-07-28 17:21:00,
2013-07-28 13:26:00,80.4,71.3,29.71,North,0,0.0,4.0,74,0.00,,,0.01,1187,WeatherCatV1.20B785,2013-07-28 17:26:00,
2013-07-28 13:31:00,81.1,72.0,29.71,NW,326,1.0,1.0,74,0.00,,,0.01,1062,WeatherCatV1.20B785,2013-07-28 17:31:00,
2013-07-28 13:36:00,81.9,71.6,29.71,North,10,0.0,3.0,71,0.00,,,0.01,1027,WeatherCatV1.20B785,2013-07-28 17:36:00,
2013-07-28 13:41:00,81.0,71.1,29.71,North,5,0.0,4.0,72,0.00,,,0.01,1023,WeatherCatV1.20B785,2013-07-28 17:41:00,
2013-07-28 13:46:00,81.2,72.5,29.71,North,5,0.0,2.0,75,0.00,,,0.01,963,WeatherCatV1.20B785,2013-07-28 17:46:00,
2013-07-28 13:51:00,81.0,71.5,29.71,North,355,0.0,2.0,73,0.00,,,0.01,475,WeatherCatV1.20B785,2013-07-28 17:51:00,
2013-07-28 13:56:00,81.6,72.1,29.71,NNW,346,0.0,1.0,73,0.00,,,0.01,334,WeatherCatV1.20B785,2013-07-28 17:56:00,
2013-07-28 14:01:00,81.7,70.9,29.71,North,350,4.0,5.0,70,0.00,,,0.01,408,WeatherCatV1.20B785,2013-07-28 18:01:00,
2013-07-28 14:06:00,80.6,71.1,29.70,NNE,32,1.0,4.0,73,0.00,,,0.01,186,WeatherCatV1.20B785,2013-07-28 18:06:00,
2013-07-28 14:11:00,79.9,71.2,29.70,North,11,0.0,2.0,75,0.00,,,0.01,179,WeatherCatV1.20B785,2013-07-28 18:11:00,
2013-07-28 14:16:00,79.6,70.6,29.70,North,5,1.0,2.0,74,0.00,,,0.01,179,WeatherCatV1.20B785,2013-07-28 18:16:00,
2013-07-28 14:21:00,79.3,70.7,29.70,NNW,342,2.0,4.0,75,0.00,,,0.01,148,WeatherCatV1.20B785,2013-07-28 18:21:00,
2013-07-28 14:26:00,79.3,71.1,29.70,NNW,346,0.0,1.0,76,0.00,,,0.01,139,WeatherCatV1.20B785,2013-07-28 18:26:00,
2013-07-28 14:31:00,79.5,70.9,29.70,SSW,199,0.0,2.0,75,0.00,,,0.01,121,WeatherCatV1.20B785,2013-07-28 18:31:00,
2013-07-28 14:36:00,79.1,70.9,29.70,NNW,336,0.0,5.0,76,0.00,,,0.01,121,WeatherCatV1.20B785,2013-07-28 18:36:00,
2013-07-28 14:41:00,78.4,70.6,29.70,NE,36,1.0,4.0,77,0.00,,,0.01,148,WeatherCatV1.20B785,2013-07-28 18:41:00,
2013-07-28 14:46:00,78.5,71.1,29.71,NNW,333,4.0,4.0,78,0.00,,,0.01,169,WeatherCatV1.20B785,2013-07-28 18:46:00,
2013-07-28 14:51:00,78.5,71.1,29.71,NNE,18,1.0,2.0,78,0.00,,,0.01,255,WeatherCatV1.20B785,2013-07-28 18:51:00,
2013-07-28 14:56:00,78.7,71.2,29.70,South,173,1.0,4.0,78,0.00,,,0.01,188,WeatherCatV1.20B785,2013-07-28 18:56:00,
2013-07-28 15:01:00,79.5,71.2,29.70,East,96,1.0,2.0,76,0.00,,,0.01,142,WeatherCatV1.20B785,2013-07-28 19:01:00,
2013-07-28 15:06:00,79.8,71.2,29.70,SSW,199,0.0,3.0,75,0.00,,,0.01,179,WeatherCatV1.20B785,2013-07-28 19:06:00,
2013-07-28 15:11:00,80.1,70.6,29.70,South,191,1.0,5.0,73,0.00,,,0.01,195,WeatherCatV1.20B785,2013-07-28 19:11:00,
2013-07-28 15:16:00,79.9,71.2,29.70,North,9,0.0,3.0,75,0.00,,,0.01,206,WeatherCatV1.20B785,2013-07-28 19:16:00,
2013-07-28 15:21:00,79.3,70.7,29.70,North,355,2.0,2.0,75,0.00,,,0.01,193,WeatherCatV1.20B785,2013-07-28 19:21:00,
2013-07-28 15:26:00,79.0,70.8,29.70,NNW,329,3.0,4.0,76,0.00,,,0.01,192,WeatherCatV1.20B785,2013-07-28 19:26:00,
2013-07-28 15:31:00,78.7,70.5,29.70,North,355,0.0,7.0,76,0.00,,,0.01,146,WeatherCatV1.20B785,2013-07-28 19:31:00,
2013-07-28 15:36:00,78.7,70.9,29.70,NW,315,0.0,1.0,77,0.00,,,0.01,142,WeatherCatV1.20B785,2013-07-28 19:36:00,
2013-07-28 15:41:00,78.7,70.5,29.70,SSE,148,1.0,3.0,76,0.00,,,0.01,163,WeatherCatV1.20B785,2013-07-28 19:41:00,
2013-07-28 15:46:00,78.4,70.9,29.70,NNW,341,5.0,5.0,78,0.00,,,0.01,181,WeatherCatV1.20B785,2013-07-28 19:46:00,
2013-07-28 15:51:00,78.7,70.9,29.70,NW,319,3.0,5.0,77,0.00,,,0.01,172,WeatherCatV1.20B785,2013-07-28 19:51:00,
2013-07-28 15:56:00,78.7,70.5,29.70,North,355,1.0,5.0,76,0.00,,,0.01,121,WeatherCatV1.20B785,2013-07-28 19:56:00,
2013-07-28 16:01:00,78.6,70.8,29.70,North,355,1.0,1.0,77,0.00,,,0.01,142,WeatherCatV1.20B785,2013-07-28 20:01:00,
2013-07-28 16:06:00,78.1,70.7,29.70,NNW,348,0.0,2.0,78,0.00,,,0.01,179,WeatherCatV1.20B785,2013-07-28 20:06:00,
2013-07-28 16:11:00,77.6,70.2,29.70,NNW,341,3.0,3.0,78,0.00,,,0.01,148,WeatherCatV1.20B785,2013-07-28 20:11:00,
2013-07-28 16:16:00,77.5,70.5,29.70,NE,49,5.0,5.0,79,0.00,,,0.01,127,WeatherCatV1.20B785,2013-07-28 20:16:00,
2013-07-28 16:21:00,77.1,69.7,29.70,North,10,3.0,4.0,78,0.00,,,0.01,116,WeatherCatV1.20B785,2013-07-28 20:21:00,
2013-07-28 16:26:00,76.5,69.5,29.71,North,351,1.0,2.0,79,0.00,,,0.01,104,WeatherCatV1.20B785,2013-07-28 20:26:00,
2013-07-28 16:31:00,76.1,69.5,29.71,North,349,4.0,4.0,80,0.00,,,0.01,111,WeatherCatV1.20B785,2013-07-28 20:31:00,
2013-07-28 16:36:00,75.9,69.6,29.71,NNW,331,2.0,5.0,81,0.00,,,0.01,120,WeatherCatV1.20B785,2013-07-28 20:36:00,
2013-07-28 16:41:00,75.7,69.4,29.71,NNW,342,1.0,2.0,81,0.00,,,0.01,127,WeatherCatV1.20B785,2013-07-28 20:41:00,
2013-07-28 16:46:00,75.8,69.5,29.71,NNW,342,1.0,2.0,81,0.00,,,0.01,107,WeatherCatV1.20B785,2013-07-28 20:46:00,
2013-07-28 16:51:00,75.8,69.5,29.71,North,350,3.0,3.0,81,0.00,,,0.01,109,WeatherCatV1.20B785,2013-07-28 20:51:00,
2013-07-28 16:56:00,75.8,69.2,29.71,South,188,0.0,3.0,80,0.00,,,0.01,107,WeatherCatV1.20B785,2013-07-28 20:56:00,
2013-07-28 17:01:00,75.8,69.2,29.72,South,179,1.0,1.0,80,0.00,,,0.01,109,WeatherCatV1.20B785,2013-07-28 21:01:00,
2013-07-28 17:06:00,75.6,69.0,29.72,NW,322,1.0,3.0,80,0.00,,,0.01,100,WeatherCatV1.20B785,2013-07-28 21:06:00,
2013-07-28 17:11:00,75.4,68.8,29.72,NNE,16,3.0,4.0,80,0.00,,,0.01,98,WeatherCatV1.20B785,2013-07-28 21:11:00,
2013-07-28 17:16:00,75.3,68.7,29.71,North,9,0.0,5.0,80,0.00,,,0.01,86,WeatherCatV1.20B785,2013-07-28 21:16:00,
2013-07-28 17:21:00,75.2,68.9,29.72,NNW,334,0.0,1.0,81,0.00,,,0.01,84,WeatherCatV1.20B785,2013-07-28 21:21:00,
2013-07-28 17:26:00,75.1,68.9,29.72,NNW,338,1.0,4.0,81,0.00,,,0.01,91,WeatherCatV1.20B785,2013-07-28 21:26:00,
2013-07-28 17:31:00,74.8,68.6,29.71,NNW,327,5.0,5.0,81,0.00,,,0.01,84,WeatherCatV1.20B785,2013-07-28 21:31:00,
2013-07-28 17:36:00,74.4,68.2,29.71,North,5,3.0,6.0,81,0.00,,,0.01,74,WeatherCatV1.20B785,2013-07-28 21:36:00,
2013-07-28 17:41:00,74.1,68.2,29.71,North,0,2.0,5.0,82,0.00,,,0.01,60,WeatherCatV1.20B785,2013-07-28 21:41:00,
2013-07-28 17:46:00,73.9,68.1,29.72,NNW,347,1.0,2.0,82,0.00,,,0.01,70,WeatherCatV1.20B785,2013-07-28 21:46:00,
2013-07-28 17:51:00,73.8,67.9,29.72,North,355,1.0,4.0,82,0.00,,,0.01,63,WeatherCatV1.20B785,2013-07-28 21:51:00,
2013-07-28 17:56:00,73.8,68.3,29.71,NNW,334,0.0,3.0,83,0.00,,,0.01,72,WeatherCatV1.20B785,2013-07-28 21:56:00,
2013-07-28 18:01:00,73.7,68.2,29.71,NNW,335,0.0,1.0,83,0.00,,,0.01,70,WeatherCatV1.20B785,2013-07-28 22:01:00,
2013-07-28 18:06:00,73.7,68.2,29.71,North,349,1.0,3.0,83,0.00,,,0.01,67,WeatherCatV1.20B785,2013-07-28 22:06:00,
2013-07-28 18:11:00,73.6,68.1,29.72,North,350,0.0,0.0,83,0.00,,,0.01,54,WeatherCatV1.20B785,2013-07-28 22:11:00,
2013-07-28 18:16:00,73.5,68.0,29.72,NNW,329,0.0,1.0,83,0.00,,,0.01,54,WeatherCatV1.20B785,2013-07-28 22:16:00,
2013-07-28 18:21:00,73.4,67.9,29.72,North,5,1.0,4.0,83,0.00,,,0.01,49,WeatherCatV1.20B785,2013-07-28 22:21:00,
2013-07-28 18:26:00,73.2,67.7,29.72,NNW,337,1.0,1.0,83,0.00,,,0.01,44,WeatherCatV1.20B785,2013-07-28 22:26:00,
2013-07-28 18:31:00,73.1,67.6,29.72,North,0,2.0,2.0,83,0.00,,,0.01,42,WeatherCatV1.20B785,2013-07-28 22:31:00,
2013-07-28 18:36:00,73.0,67.9,29.72,NNW,342,0.0,3.0,84,0.00,,,0.01,40,WeatherCatV1.20B785,2013-07-28 22:36:00,
2013-07-28 18:41:00,72.9,67.8,29.72,NNW,341,0.0,0.0,84,0.00,,,0.01,33,WeatherCatV1.20B785,2013-07-28 22:41:00,
2013-07-28 18:46:00,72.8,67.7,29.72,NNE,26,1.0,3.0,84,0.00,,,0.01,32,WeatherCatV1.20B785,2013-07-28 22:46:00,
2013-07-28 18:51:00,72.5,67.4,29.72,North,355,0.0,3.0,84,0.00,,,0.01,25,WeatherCatV1.20B785,2013-07-28 22:51:00,
2013-07-28 18:56:00,72.3,67.2,29.73,NNW,331,1.0,3.0,84,0.00,,,0.01,21,WeatherCatV1.20B785,2013-07-28 22:56:00,
2013-07-28 19:01:00,72.2,67.4,29.73,NNW,335,0.0,3.0,85,0.00,,,0.01,16,WeatherCatV1.20B785,2013-07-28 23:01:00,
2013-07-28 19:06:00,72.1,67.3,29.73,NNW,327,0.0,0.0,85,0.00,,,0.01,14,WeatherCatV1.20B785,2013-07-28 23:06:00,
2013-07-28 19:11:00,72.0,67.2,29.73,North,5,0.0,1.0,85,0.00,,,0.01,14,WeatherCatV1.20B785,2013-07-28 23:11:00,
2013-07-28 19:16:00,71.9,67.1,29.73,North,11,0.0,1.0,85,0.00,,,0.01,12,WeatherCatV1.20B785,2013-07-28 23:16:00,
2013-07-28 19:21:00,71.8,67.0,29.73,North,11,1.0,3.0,85,0.00,,,0.01,7,WeatherCatV1.20B785,2013-07-28 23:21:00,
2013-07-28 19:26:00,71.7,66.9,29.73,North,11,0.0,0.0,85,0.00,,,0.01,0,WeatherCatV1.20B785,2013-07-28 23:26:00,
2013-07-28 19:31:00,71.6,66.8,29.74,North,11,0.0,2.0,85,0.00,,,0.01,0,WeatherCatV1.20B785,2013-07-28 23:31:00,
2013-07-28 19:36:00,71.5,66.7,29.74,North,11,2.0,3.0,85,0.00,,,0.01,0,WeatherCatV1.20B785,2013-07-28 23:36:00,
2013-07-28 19:41:00,71.4,66.7,29.74,North,11,0.0,0.0,85,0.00,,,0.01,0,WeatherCatV1.20B785,2013-07-28 23:41:00,
2013-07-28 19:46:00,71.3,66.9,29.74,North,11,0.0,2.0,86,0.00,,,0.01,0,WeatherCatV1.20B785,2013-07-28 23:46:00,
2013-07-28 19:51:00,71.2,66.8,29.74,North,10,0.0,0.0,86,0.00,,,0.01,0,WeatherCatV1.20B785,2013-07-28 23:51:00,
2013-07-28 19:56:00,71.1,66.7,29.74,North,10,1.0,1.0,86,0.00,,,0.01,0,WeatherCatV1.20B785,2013-07-28 23:56:00,
2013-07-28 20:02:00,71.0,66.6,29.74,North,10,1.0,2.0,86,0.00,,,0.01,0,WeatherCatV1.20B785,2013-07-29 00:02:00,
2013-07-28 20:07:00,70.9,66.5,29.74,North,0,0.0,0.0,86,0.00,,,0.01,0,WeatherCatV1.20B785,2013-07-29 00:07:00,
2013-07-28 20:12:00,70.8,66.7,29.74,North,0,1.0,1.0,87,0.00,,,0.01,0,WeatherCatV1.20B785,2013-07-29 00:12:00,
2013-07-28 20:17:00,70.8,66.7,29.74,North,0,0.0,0.0,87,0.00,,,0.01,0,WeatherCatV1.20B785,2013-07-29 00:17:00,
2013-07-28 20:22:00,70.7,66.6,29.74,North,0,0.0,1.0,87,0.00,,,0.01,0,WeatherCatV1.20B785,2013-07-29 00:22:00,
2013-07-28 20:27:00,70.6,66.5,29.74,North,350,0.0,3.0,87,0.00,,,0.01,0,WeatherCatV1.20B785,2013-07-29 00:27:00,
2013-07-28 20:32:00,70.4,66.3,29.74,North,350,0.0,3.0,87,0.00,,,0.01,0,WeatherCatV1.20B785,2013-07-29 00:32:00,
2013-07-28 20:37:00,70.2,66.1,29.74,North,355,2.0,3.0,87,0.00,,,0.01,0,WeatherCatV1.20B785,2013-07-29 00:37:00,
2013-07-28 20:42:00,70.0,65.9,29.74,North,355,0.0,1.0,87,0.00,,,0.01,0,WeatherCatV1.20B785,2013-07-29 00:42:00,
2013-07-28 20:47:00,69.8,66.1,29.74,North,355,4.0,4.0,88,0.00,,,0.01,0,WeatherCatV1.20B785,2013-07-29 00:47:00,
2013-07-28 20:52:00,69.6,65.9,29.74,NNW,340,0.0,0.0,88,0.00,,,0.01,0,WeatherCatV1.20B785,2013-07-29 00:52:00,
2013-07-28 20:57:00,69.5,65.8,29.74,NNW,340,1.0,3.0,88,0.00,,,0.01,0,WeatherCatV1.20B785,2013-07-29 00:57:00,
2013-07-28 21:02:00,69.4,65.7,29.74,NNE,21,0.0,0.0,88,0.00,,,0.01,0,WeatherCatV1.20B785,2013-07-29 01:02:00,
2013-07-28 21:07:00,69.2,65.5,29.74,NNW,348,0.0,2.0,88,0.00,,,0.01,0,WeatherCatV1.20B785,2013-07-29 01:07:00,
2013-07-28 21:12:00,69.2,65.8,29.74,North,355,2.0,3.0,89,0.00,,,0.01,0,WeatherCatV1.20B785,2013-07-29 01:12:00,
2013-07-28 21:17:00,69.1,65.7,29.74,North,355,1.0,2.0,89,0.00,,,0.01,0,WeatherCatV1.20B785,2013-07-29 01:17:00,
2013-07-28 21:22:00,69.0,65.6,29.74,North,355,0.0,4.0,89,0.00,,,0.01,0,WeatherCatV1.20B785,2013-07-29 01:22:00,
2013-07-28 21:27:00,68.9,65.5,29.74,NNW,332,0.0,2.0,89,0.00,,,0.01,0,WeatherCatV1.20B785,2013-07-29 01:27:00,
2013-07-28 21:32:00,68.7,65.3,29.75,North,355,1.0,3.0,89,0.00,,,0.01,0,WeatherCatV1.20B785,2013-07-29 01:32:00,
2013-07-28 21:37:00,68.6,65.2,29.75,North,355,0.0,1.0,89,0.00,,,0.01,0,WeatherCatV1.20B785,2013-07-29 01:37:00,
2013-07-28 21:42:00,68.6,65.5,29.75,North,355,2.0,4.0,90,0.00,,,0.01,0,WeatherCatV1.20B785,2013-07-29 01:42:00,
2013-07-28 21:47:00,68.5,65.4,29.75,North,0,0.0,1.0,90,0.00,,,0.01,0,WeatherCatV1.20B785,2013-07-29 01:47:00,
2013-07-28 21:52:00,68.5,65.4,29.75,North,355,0.0,2.0,90,0.00,,,0.01,0,WeatherCatV1.20B785,2013-07-29 01:52:00,
2013-07-28 21:57:00,68.4,65.3,29.75,North,355,0.0,0.0,90,0.00,,,0.01,0,WeatherCatV1.20B785,2013-07-29 01:57:00,
2013-07-28 22:02:00,68.4,65.3,29.75,North,355,1.0,1.0,90,0.00,,,0.01,0,WeatherCatV1.20B785,2013-07-29 02:02:00,
2013-07-28 22:07:00,68.3,65.2,29.74,North,5,0.0,0.0,90,0.00,,,0.01,0,WeatherCatV1.20B785,2013-07-29 02:07:00,
2013-07-28 22:12:00,68.3,65.2,29.74,North,0,0.0,2.0,90,0.00,,,0.01,0,WeatherCatV1.20B785,2013-07-29 02:12:00,
2013-07-28 22:17:00,68.3,65.2,29.74,North,5,1.0,1.0,90,0.00,,,0.01,0,WeatherCatV1.20B785,2013-07-29 02:17:00,
2013-07-28 22:22:00,68.2,65.2,29.74,North,5,0.0,1.0,90,0.00,,,0.01,0,WeatherCatV1.20B785,2013-07-29 02:22:00,
2013-07-28 22:27:00,68.2,65.2,29.73,North,5,0.0,0.0,90,0.00,,,0.01,0,WeatherCatV1.20B785,2013-07-29 02:27:00,
2013-07-28 22:32:00,68.2,65.2,29.73,North,355,0.0,3.0,90,0.00,,,0.01,0,WeatherCatV1.20B785,2013-07-29 02:32:00,
2013-07-28 22:37:00,68.2,65.2,29.73,North,355,0.0,0.0,90,0.00,,,0.01,0,WeatherCatV1.20B785,2013-07-29 02:37:00,
2013-07-28 22:42:00,68.2,65.2,29.73,North,355,1.0,1.0,90,0.00,,,0.01,0,WeatherCatV1.20B785,2013-07-29 02:42:00,
2013-07-28 22:47:00,68.1,65.1,29.73,North,355,0.0,1.0,90,0.00,,,0.01,0,WeatherCatV1.20B785,2013-07-29 02:47:00,
2013-07-28 22:52:00,68.1,65.1,29.74,North,355,0.0,1.0,90,0.00,,,0.01,0,WeatherCatV1.20B785,2013-07-29 02:52:00,
2013-07-28 22:57:00,68.1,65.1,29.74,North,355,0.0,0.0,90,0.00,,,0.01,0,WeatherCatV1.20B785,2013-07-29 02:57:00,
2013-07-28 23:02:00,68.0,64.9,29.74,North,355,0.0,0.0,90,0.00,,,0.01,0,WeatherCatV1.20B785,2013-07-29 03:02:00,
2013-07-28 23:07:00,68.0,64.9,29.74,North,355,0.0,0.0,90,0.00,,,0.01,0,WeatherCatV1.20B785,2013-07-29 03:07:00,
2013-07-28 23:12:00,68.0,64.9,29.74,North,355,0.0,0.0,90,0.00,,,0.01,0,WeatherCatV1.20B785,2013-07-29 03:12:00,
2013-07-28 23:17:00,68.1,65.4,29.74,North,355,0.0,0.0,91,0.00,,,0.01,0,WeatherCatV1.20B785,2013-07-29 03:17:00,
2013-07-28 23:22:00,68.1,65.4,29.74,North,355,0.0,1.0,91,0.00,,,0.01,0,WeatherCatV1.20B785,2013-07-29 03:22:00,
2013-07-28 23:27:00,68.1,65.4,29.74,North,355,0.0,2.0,91,0.00,,,0.01,0,WeatherCatV1.20B785,2013-07-29 03:27:00,
2013-07-28 23:32:00,68.1,65.4,29.74,North,355,0.0,0.0,91,0.00,,,0.01,0,WeatherCatV1.20B785,2013-07-29 03:32:00,
2013-07-28 23:37:00,68.1,65.4,29.75,North,355,0.0,0.0,91,0.00,,,0.01,0,WeatherCatV1.20B785,2013-07-29 03:37:00,
2013-07-28 23:42:00,68.2,65.5,29.75,North,355,0.0,0.0,91,0.00,,,0.01,0,WeatherCatV1.20B785,2013-07-29 03:42:00,
2013-07-28 23:47:00,68.2,65.5,29.75,North,355,0.0,0.0,91,0.00,,,0.01,0,WeatherCatV1.20B785,2013-07-29 03:47:00,
2013-07-28 23:52:00,68.3,65.6,29.75,North,355,0.0,0.0,91,0.00,,,0.01,0,WeatherCatV1.20B785,2013-07-29 03:52:00,
2013-07-28 23:57:00,68.3,65.6,29.75,North,355,0.0,0.0,91,0.00,,,0.01,0,WeatherCatV1.20B785,2013-07-29 03:57:00,